Regional Weather Roundup
Issued by NWS Kansas City/Pleasant Hill, MO

Home | Current Version | Previous Version | Text Only | Print | Product List | Glossary On
Versions: 1 2 3 4 5 6 7 8 9 10 11 12 13 14 15 16 17 18 19 20 21 22 23 24 25 26 27
000
ASUS43 KEAX 182110
RWREAX

WEATHER ROUNDUP FOR EASTERN KANSAS AND NORTHWEST MISSOURI
NATIONAL WEATHER SERVICE KANSAS CITY/PLEASANT HILL MO
300 PM CST SAT FEB 18 2017

KSZ040-057-103>105-MOZ028-029-037-043-182200-
...KANSAS CITY METROPOLITAN AREA...

CITY           SKY/WX    TMP DP  RH WIND       PRES   REMARKS
K.C. INTL      MOSUNNY   70  40  33 CALM      29.77F
K.C. DOWNTOWN  SUNNY     70  43  37 CALM      29.76F
LEES SUMMIT    SUNNY     70  45  40 W7        29.78S
OLATHE - IXD   SUNNY     70  46  42 S6        29.78F
OLATHE - OJC   SUNNY     69  46  43 SW3       29.77F
LAWRENCE       SUNNY     70  44  39 CALM      29.77F

$$

MOZ001>008-011>017-020>025-030>033-038>040-044>046-053-054-182200-
...NORTHERN AND CENTRAL MISSOURI...

CITY           SKY/WX    TMP DP  RH WIND       PRES   REMARKS
ST. JOSEPH     SUNNY     68  39  34 VRB3      29.78F
WARRENSBURG    SUNNY     70  45  40 SW6       29.77F
WHITEMAN AFB   SUNNY     71  46  40 W10       29.76F
CLINTON        SUNNY     70  48  46 SW9       29.79S
SEDALIA        SUNNY     71  46  40 W8        29.79S
WARSAW         NOT AVBL
CHILLICOTHE      N/A     71  40  32 VRB3      29.77F
KIRKSVILLE     SUNNY     69  38  32 VRB5      29.77S

$$

MOZ041-047>049-056>058-063>065-088>090-097-182200-
...EASTERN AND SOUTHERN MISSOURI...

CITY           SKY/WX    TMP DP  RH WIND       PRES   REMARKS
ST. LOUIS INTL PTSUNNY   62  46  55 S13       29.80F
SPIRIT OF STL  PTSUNNY   61  47  59 SW9       29.79F
COLUMBIA       SUNNY     71  45  39 W12       29.77F
JEFFERSON CITY MOSUNNY   69  45  41 SW9       29.76F
ROLLA          PTSUNNY   62  48  60 S9        29.80S
OSAGE BEACH    MOSUNNY   69  46  43 VRB5      29.80
SPRINGFIELD    MOSUNNY   66  49  54 VRB6      29.81F
BRANSON        PTSUNNY   66  48  52 CALM      29.82F
JOPLIN         SUNNY     64  53  67 S10       29.83S
WEST PLAINS    CLOUDY    60  50  69 SE3       29.85S

$$

IAZ060-094-KSZ022-034>040-054-083-096-NEZ052-066-093-182200-
...KANSAS...SOUTHEAST NEBRASKA AND IOWA...

CITY           SKY/WX    TMP DP  RH WIND       PRES   REMARKS
TOPEKA         SUNNY     71  43  36 CALM      29.76F
MANHATTAN      SUNNY     72  44  36 NE5       29.74F
EMPORIA        SUNNY     74  39  28 S9        29.75F
CHANUTE        SUNNY     71  49  45 S10       29.79S
WICHITA        MOSUNNY   72  43  35 S10       29.75F
OMAHA          MOSUNNY   65  34  31 CALM      29.77F
LINCOLN        SUNNY     67  30  25 SE10      29.78F
FALLS CITY     SUNNY     69  33  26 NE7       29.76F
LAMONI         SUNNY     69  34  27 CALM      29.78R
DES MOINES     MOSUNNY   66  32  28 NW7       29.79R

$$





USA.gov is the U.S. government's official web portal to all federal, state and local government web resources and services.